Regional Weather Roundup
Issued by NWS

Home | Current Version | Previous Version | Graphics & Text | Print | Product List | Glossary On
Versions: 1 2 3 4 5 6 7 8 9 10 11 12 13 14 15 16 17 18 19 20 21 22 23 24 25 26 27 28 29 30 31 32 33 34 35 36 37 38 39 40 41 42 43 44 45 46 47 48 49 50
730
ASUS43 KTOP 231208
RWRKS

WEATHER ROUNDUP FOR KANSAS
NATIONAL WEATHER SERVICE GOODLAND KS
700 AM CDT WED MAY 23 2018

NOTE:  "FAIR" INDICATES FEW OR NO CLOUDS BELOW 12,000 FEET WITH NO
SIGNIFICANT WEATHER AND/OR OBSTRUCTIONS TO VISIBILITY.

KSZ001>006-013>018-027>032-041>047-231300-
NORTHWEST KANSAS

CITY           SKY/WX    TMP DP  RH WIND       PRES   REMARKS
GOODLAND       CLOUDY    66  50  56 S22G33    29.98R
6HR MIN TEMP:  59; 6HR MAX TEMP:  67;

HAYS           PTCLDY    67  62  84 S13       30.00S
HILL CITY      MOCLDY    67  62  84 S8        29.99R
6HR MIN TEMP:  66; 6HR MAX TEMP:  73;

RUSSELL        PTCLDY    68  65  90 S12       30.00R
6HR MIN TEMP:  67; 6HR MAX TEMP:  74;

$$

KSZ061>065-074>080-084>089-231300-
SOUTHWEST KANSAS

CITY           SKY/WX    TMP DP  RH WIND       PRES   REMARKS
DODGE CITY     CLOUDY    66  59  78 S8        30.05R
6HR MIN TEMP:  64; 6HR MAX TEMP:  70;

ELKHART        MOCLDY    61  60  97 E5        30.06F
GARDEN CITY    CLOUDY    63  55  75 W15       30.03S
6HR MIN TEMP:  62; 6HR MAX TEMP:  70; 6HR PCP:  0.01;

GREAT BEND     CLOUDY    68  63  84 S9        30.03R
LIBERAL        CLOUDY    63  57  81 W14       30.11R
PRATT          PTCLDY    66  62  88 S8        30.04S
6HR MIN TEMP:  64; 6HR MAX TEMP:  72;

$$

KSZ066>073-081>083-090>101-231300-
SOUTHEAST KANSAS

CITY           SKY/WX    TMP DP  RH WIND       PRES   REMARKS
CHANUTE        CLEAR     69  67  93 SE8       30.07R
6HR MIN TEMP:  67; 6HR MAX TEMP:  72;

COFFEYVILLE    CLEAR     66  66 100 CALM      30.06R FOG
6HR MIN TEMP:  64; 6HR MAX TEMP:  70;

HUTCHINSON     PTCLDY    66  66 100 SE6       30.04R
6HR MIN TEMP:  63; 6HR MAX TEMP:  72;

MEDICINE LODGE   N/A     66  64  93 SE6       30.04R
NEWTON         CLEAR     67  66  97 S7        30.06R
PARSONS        CLEAR     68  68 100 SE3       30.07R
6HR MIN TEMP:  65; 6HR MAX TEMP:  71;

WICHITA INTL   PTCLDY    69  68  96 SE8       30.04R
6HR MIN TEMP:  67; 6HR MAX TEMP:  72;

WICHITA JABRA  CLEAR     67  67 100 S7        30.05R
6HR MIN TEMP:  66; 6HR MAX TEMP:  72;

WICHITA MCCONL CLEAR     68  67  95 S6        30.05R
WINFIELD       CLEAR     68  68 100 SE7       30.07R
6HR MIN TEMP:  68; 6HR MAX TEMP:  71;

$$

KSZ007>012-019>026-033>040-048>060-102>105-231300-
NORTHEAST KANSAS

CITY           SKY/WX    TMP DP  RH WIND       PRES   REMARKS
CONCORDIA      PTCLDY    68  65  90 SE12      30.03R
6HR MIN TEMP:  67; 6HR MAX TEMP:  73;

EMPORIA        CLEAR     65  64  97 SE3       30.06R
6HR MIN TEMP:  64; 6HR MAX TEMP:  68;

LAWRENCE       PTCLDY    66  65  96 E5        30.07R
6HR MIN TEMP:  64; 6HR MAX TEMP:  70;

MANHATTAN      CLEAR     69  66  90 SW3       30.04R
6HR MIN TEMP:  67; 6HR MAX TEMP:  72;

MARYSVILLE     MOCLDY    68  64  88 SE5       30.05R
OLATHE IND     CLEAR     68  65  90 SE5       30.08R
6HR MIN TEMP:  67; 6HR MAX TEMP:  71;

OLATHE EXE     CLEAR     66  63  90 SE5       30.08R
6HR MIN TEMP:  65; 6HR MAX TEMP:  70;

SALINA         PTCLDY    69  67  93 S7        30.03R
6HR MIN TEMP:  66; 6HR MAX TEMP:  74;

TOPEKA BILLARD PTCLDY    66  66 100 CALM      30.06R
6HR MIN TEMP:  64; 6HR MAX TEMP:  70;

TOPEKA FORBES  CLEAR     67  66  97 CALM      30.07R
6HR MIN TEMP:  64; 6HR MAX TEMP:  72;

$$




USA.gov is the U.S. government's official web portal to all federal, state and local government web resources and services.